Lid_Strength_Index
2 5 4 6 10 10 12 11 9 8 7 5 8 6 7 6 7 8 1 0 0 0 -1 -1 -1 -1 -1 -1 -1 -1 -1 -1 -1 -1 -1 -1 -1 -1 -1 -1 -1 -1 -1 -1 -1 -2 -2 -1 -1
5 5 4 7 12 14 12 11 10 9 7 6 8 6 6 7 4 4 3 0 -0 -0 -1 -1 -1 -1 -1 -1 -1 -1 -1 -1 -1 -1 -1 -1 -1 -1 -1 -1 -1 -1 -1 -1 -2 -2 -2 -2 -2
6 5 6 8 11 13 13 11 9 7 7 6 6 5 5 5 3 3 1 0 -0 -0 -1 -1 -1 -1 -1 -1 -1 -1 -1 -1 -1 -1 -1 -1 -1 -1 -1 -1 -1 -1 -1 -2 -2 -2 -3 -3 -3
6 5 7 10 12 11 11 9 9 8 7 5 5 5 3 3 4 2 0 0 0 -0 -1 -1 -1 -1 -1 -1 -1 -1 -1 -1 -1 -1 -1 -1 -1 -1 -1 -1 -1 -2 -2 -2 -3 -3 -3 -3 -3
6 7 10 11 12 10 9 8 8 9 8 7 6 5 5 2 1 1 1 0 1 0 -1 -1 -1 -1 -1 -1 -1 -1 -1 -1 -1 -1 -1 -1 -1 -1 -1 -1 -1 -2 -2 -2 -2 -2 -2 -3 -3
7 7 11 12 11 10 8 7 7 8 8 8 7 6 4 2 2 1 0 0 -0 0 -0 -1 -1 -1 -1 -1 -1 -1 -1 -1 -1 -1 -1 -1 -1 -1 -1 -1 -1 -2 -2 -2 -2 -2 -3 -3 -3
8 9 11 11 11 10 9 7 8 8 8 8 7 8 5 3 1 1 1 0 -0 -0 -0 -1 -1 -1 -1 -1 -1 -1 -1 -1 -1 -1 -1 -1 -1 -1 -1 -1 -1 -1 -2 -2 -2 -3 -3 -3 -3
7 8 12 11 11 10 8 8 7 8 8 6 6 8 8 5 1 1 1 1 0 -0 -0 -0 -1 -1 -1 -1 -1 -1 -1 -1 -1 -1 -1 -1 -1 -1 -1 -1 -1 -1 -2 -2 -2 -3 -3 -3 -3
6 9 12 11 10 9 7 8 7 6 8 7 7 7 6 4 1 2 2 2 1 1 0 -0 -0 -1 -1 -1 -1 -1 -1 -1 -1 -1 -1 -1 -1 -2 -1 -1 -1 -1 -2 -2 -2 -2 -2 -2 -2
7 9 10 8 7 7 6 7 7 8 8 8 8 6 5 5 3 2 3 3 2 2 1 0 -0 -0 -1 -1 -1 -1 -1 -1 -1 -1 -1 -1 -2 -2 -1 -1 -1 -1 -2 -2 -2 -2 -2 -1 -2
9 9 8 8 7 6 7 7 6 8 9 8 8 7 6 6 5 3 3 2 2 1 1 0 0 -0 -0 -0 -1 -1 -1 -1 -1 -1 -1 -2 -1 -1 -1 -1 -1 -2 -1 -1 -2 -1 -1 -1 -1
10 8 8 7 7 7 8 7 8 7 7 5 6 6 6 6 6 5 2 2 2 2 1 0 -0 -0 -0 -0 -0 -0 -0 -1 -1 -1 -1 -1 -1 -1 -1 -1 -1 -1 -1 -1 -1 -1 -1 -1 -1
9 9 8 7 8 8 7 8 7 7 6 5 4 4 5 5 5 4 3 1 1 2 1 1 0 0 -0 -0 -0 -0 -0 -0 -1 -1 -1 -1 -0 -0 -1 -1 -1 -1 -1 -1 -1 -1 -1 -1 -1
9 9 9 8 8 8 8 8 8 7 5 5 5 5 4 6 4 3 3 3 2 1 1 1 1 0 -0 0 -0 0 -0 -0 -1 -1 -1 -1 -1 -0 -0 -0 -0 -1 -1 -1 -1 -1 -0 -0 -1
8 10 9 8 8 8 8 10 9 7 6 6 5 5 4 5 5 4 2 1 1 1 1 1 1 -0 0 0 -0 -0 -0 -0 -0 -0 -1 -1 -1 -1 -1 -0 -0 -1 -1 -1 -1 -1 -1 -0 -0
10 10 11 9 9 8 9 11 8 7 7 7 6 6 5 4 5 4 3 2 1 1 1 1 0 0 0 0 0 0 -0 -0 -0 -1 -1 -1 -1 -1 -0 -0 -0 -1 -1 -1 -0 -0 0 0 0
11 13 12 10 9 9 9 10 8 6 6 7 6 6 5 5 4 4 3 3 1 0 1 1 0 1 1 0 0 0 -0 -0 -0 -1 -0 -1 -1 -1 -1 -0 -0 -1 -0 -0 -0 -0 -0 1 1
13 13 12 12 9 9 9 9 8 6 6 7 6 6 5 5 4 2 4 4 3 0 0 1 1 1 0 0 0 0 0 0 -0 -0 -0 -1 -0 -1 -1 -0 -0 -0 0 0 -0 -0 -0 0 0
11 12 12 10 8 10 9 9 8 6 6 6 5 5 5 4 3 2 2 2 4 2 1 1 1 1 1 1 2 2 2 1 1 0 -0 -0 -1 -1 -0 -0 -0 -0 0 0 0 0 1 1 0
11 11 11 10 9 10 9 10 8 7 7 6 6 5 5 4 3 3 2 1 1 1 1 1 1 1 1 1 1 1 1 1 0 0 -0 -0 -0 -0 -0 -0 0 0 0 0 0 0 1 1 0
11 12 11 12 10 9 10 10 9 8 7 6 6 5 5 5 5 3 2 2 1 1 1 1 1 1 1 1 1 1 1 1 1 1 1 0 -0 -0 -0 -0 -0 0 0 1 1 1 1 2 1
12 10 10 11 11 13 10 15 10 9 8 7 6 5 6 5 5 4 4 2 2 1 1 1 1 1 1 1 1 2 2 3 2 1 1 0 -0 -0 -0 -0 -0 -0 0 0 0 0 1 1 2
11 10 10 10 11 12 12 13 11 9 9 8 7 6 5 4 4 4 4 3 2 1 1 1 1 1 1 1 1 2 2 2 1 1 1 1 -0 -0 -0 -0 -0 0 0 0 0 1 1 1 2
8 10 10 11 12 15 12 13 12 11 10 9 7 6 5 5 4 4 3 3 2 2 1 1 1 1 1 1 1 1 2 2 2 2 2 1 1 0 -0 -0 -0 -0 0 0 0 1 1 1 1
9 11 15 16 16 16 12 14 12 10 8 8 8 7 6 5 5 4 4 3 3 2 1 1 1 2 1 1 1 1 1 1 2 2 2 1 1 1 1 -0 0 0 -0 -0 0 0 1 1 1
11 11 14 19 17 15 12 16 12 9 7 7 6 5 5 5 4 4 3 3 2 2 2 1 2 2 1 1 1 1 1 1 1 1 1 1 1 1 -0 0 -0 -0 -0 -0 -0 0 0 0 1
11 13 10 13 14 16 14 12 10 9 8 7 6 5 5 4 4 4 3 2 2 2 2 2 2 2 1 1 1 2 2 1 1 0 0 1 0 0 -0 -0 -0 -0 -0 -0 -0 1 1 0 0
10 10 14 13 18 19 16 15 15 11 9 7 6 6 5 4 4 4 3 3 2 2 2 1 1 1 1 1 1 1 1 1 0 0 1 0 0 -0 0 0 -0 -0 0 -0 -0 0 0 0 1
12 12 12 12 14 17 18 16 10 8 7 7 6 5 5 5 4 4 3 2 2 2 2 2 2 2 2 1 1 1 1 1 1 1 0 0 0 0 0 0 0 0 0 -0 -0 0 0 1 0
11 11 11 15 16 15 16 16 8 6 6 6 6 5 5 4 4 4 3 3 3 2 2 2 2 2 1 1 1 1 1 1 1 1 0 0 0 0 0 0 0 0 0 -0 -0 0 -0 0 0